Time,TemperatureF,DewpointF,PressureIn,WindDirection,WindDirectionDegrees,WindSpeedMPH,WindSpeedGustMPH,Humidity,HourlyPrecipIn,Conditions,Clouds,dailyrainin,SolarRadiationWatts/m^2,SoftwareType,DateUTC
2013-03-17 00:03:00,37.0,37.0,-100.00,NNW,328,0.0,0.0,100,0.00,,,0.02,0.000000,,2013-03-17 04:03:00,
2013-03-17 00:13:00,37.0,37.0,-100.00,NNW,328,0.0,0.0,100,0.00,,,0.02,0.000000,,2013-03-17 04:13:00,
2013-03-17 00:43:00,35.0,35.0,-100.00,NW,321,0.0,0.0,100,0.00,,,0.02,0.000000,,2013-03-17 04:43:00,
2013-03-17 00:53:00,35.0,35.0,-100.00,NW,321,0.0,0.0,100,0.00,,,0.02,0.000000,,2013-03-17 04:53:00,
2013-03-17 01:03:00,35.0,35.0,-100.00,NW,321,0.0,0.0,100,0.00,,,0.02,0.000000,,2013-03-17 05:03:00,
2013-03-17 01:12:00,35.0,35.0,-100.00,NW,321,0.0,0.0,100,0.00,,,0.02,0.000000,,2013-03-17 05:12:00,
2013-03-17 01:42:00,35.0,35.0,-100.00,NW,320,0.0,0.0,100,0.00,,,0.02,0.000000,,2013-03-17 05:42:00,
2013-03-17 01:52:00,35.0,35.0,-100.00,NW,320,0.0,0.0,100,0.00,,,0.02,0.000000,,2013-03-17 05:52:00,
2013-03-17 02:02:00,35.0,35.0,-100.00,NW,320,0.0,0.0,100,0.00,,,0.02,0.000000,,2013-03-17 06:02:00,
2013-03-17 02:12:00,35.0,35.0,-100.00,NW,320,0.0,0.0,100,0.00,,,0.02,0.000000,,2013-03-17 06:12:00,
2013-03-17 02:42:00,34.0,34.0,-100.00,NW,321,0.0,0.0,100,0.00,,,0.02,0.000000,,2013-03-17 06:42:00,
2013-03-17 02:53:00,34.0,34.0,-100.00,NW,321,0.0,0.0,100,0.00,,,0.02,0.000000,,2013-03-17 06:53:00,
2013-03-17 03:02:00,34.0,34.0,-100.00,NW,321,0.0,0.0,100,0.00,,,0.02,0.000000,,2013-03-17 07:02:00,
2013-03-17 03:12:00,34.0,34.0,-100.00,NW,321,0.0,0.0,100,0.00,,,0.02,0.000000,,2013-03-17 07:12:00,
2013-03-17 03:42:00,33.0,33.0,-100.00,NW,322,0.0,0.0,100,0.00,,,0.02,0.000000,,2013-03-17 07:42:00,
2013-03-17 03:52:00,33.0,33.0,-100.00,NW,322,0.0,0.0,100,0.00,,,0.02,0.000000,,2013-03-17 07:52:00,
2013-03-17 04:03:00,33.0,33.0,-100.00,NW,322,0.0,0.0,100,0.00,,,0.02,0.000000,,2013-03-17 08:03:00,
2013-03-17 04:13:00,33.0,33.0,-100.00,NW,322,0.0,0.0,100,0.00,,,0.02,0.000000,,2013-03-17 08:13:00,
2013-03-17 04:42:00,31.0,31.0,-100.00,NW,321,0.0,0.0,100,0.00,,,0.02,0.000000,,2013-03-17 08:42:00,
2013-03-17 04:52:00,31.0,31.0,-100.00,NW,321,0.0,0.0,100,0.00,,,0.02,0.000000,,2013-03-17 08:52:00,
2013-03-17 05:03:00,31.0,31.0,-100.00,NW,321,0.0,0.0,100,0.00,,,0.02,0.000000,,2013-03-17 09:03:00,
2013-03-17 05:13:00,31.0,31.0,-100.00,NW,321,0.0,0.0,100,0.00,,,0.02,0.000000,,2013-03-17 09:13:00,
2013-03-17 05:43:00,31.0,31.0,-100.00,NW,325,0.0,0.0,100,0.00,,,0.02,0.000000,,2013-03-17 09:43:00,
2013-03-17 05:53:00,31.0,31.0,-100.00,NW,325,0.0,0.0,100,0.00,,,0.02,0.000000,,2013-03-17 09:53:00,
2013-03-17 06:03:00,31.0,31.0,-100.00,NW,325,0.0,0.0,100,0.00,,,0.02,0.000000,,2013-03-17 10:03:00,
2013-03-17 06:13:00,31.0,31.0,-100.00,NW,325,0.0,0.0,100,0.00,,,0.02,0.000000,,2013-03-17 10:13:00,
2013-03-17 06:42:00,30.0,30.0,-100.00,NW,320,0.0,0.0,100,0.00,,,0.02,0.000000,,2013-03-17 10:42:00,
2013-03-17 06:53:00,30.0,30.0,-100.00,NW,320,0.0,0.0,100,0.00,,,0.02,0.000000,,2013-03-17 10:53:00,
2013-03-17 07:03:00,30.0,30.0,-100.00,NW,320,0.0,0.0,100,0.00,,,0.02,0.000000,,2013-03-17 11:03:00,
2013-03-17 07:12:00,30.0,30.0,-100.00,NW,320,0.0,0.0,100,0.00,,,0.02,0.000000,,2013-03-17 11:12:00,
2013-03-17 07:43:00,30.0,30.0,-100.00,NNW,327,0.0,0.0,100,0.00,,,0.02,0.000000,,2013-03-17 11:43:00,
2013-03-17 07:52:00,30.0,30.0,-100.00,NNW,327,0.0,0.0,100,0.00,,,0.02,0.000000,,2013-03-17 11:52:00,
2013-03-17 08:02:00,30.0,30.0,-100.00,NNW,327,0.0,0.0,100,0.00,,,0.02,0.000000,,2013-03-17 12:02:00,
2013-03-17 08:12:00,30.0,30.0,-100.00,NNW,327,0.0,0.0,100,0.00,,,0.02,0.000000,,2013-03-17 12:12:00,
2013-03-17 08:43:00,29.0,29.0,-100.00,NNW,331,0.0,0.0,100,0.00,,,0.01,3.000000,,2013-03-17 12:43:00,
2013-03-17 08:52:00,29.0,29.0,-100.00,NNW,331,0.0,0.0,100,0.00,,,0.01,3.000000,,2013-03-17 12:52:00,
2013-03-17 09:02:00,29.0,29.0,-100.00,NNW,331,0.0,0.0,100,0.00,,,0.01,3.000000,,2013-03-17 13:02:00,
2013-03-17 09:13:00,29.0,29.0,-100.00,NNW,331,0.0,0.0,100,0.00,,,0.01,3.000000,,2013-03-17 13:13:00,
2013-03-17 09:43:00,28.0,28.0,-100.00,NNW,329,0.0,0.0,100,0.00,,,0.01,24.000000,,2013-03-17 13:43:00,
2013-03-17 09:53:00,28.0,28.0,-100.00,NNW,329,0.0,0.0,100,0.00,,,0.01,24.000000,,2013-03-17 13:53:00,
2013-03-17 10:02:00,28.0,28.0,-100.00,NNW,329,0.0,0.0,100,0.00,,,0.01,24.000000,,2013-03-17 14:02:00,
2013-03-17 10:12:00,28.0,28.0,-100.00,NNW,329,0.0,0.0,100,0.00,,,0.01,24.000000,,2013-03-17 14:12:00,
2013-03-17 10:43:00,26.0,26.0,-100.00,North,352,0.0,0.0,100,0.00,,,0.01,23.000000,,2013-03-17 14:43:00,
2013-03-17 10:53:00,26.0,26.0,-100.00,North,352,0.0,0.0,100,0.00,,,0.01,23.000000,,2013-03-17 14:53:00,
2013-03-17 11:02:00,26.0,26.0,-100.00,North,352,0.0,0.0,100,0.00,,,0.01,23.000000,,2013-03-17 15:02:00,
2013-03-17 11:12:00,26.0,26.0,-100.00,North,352,0.0,0.0,100,0.00,,,0.01,23.000000,,2013-03-17 15:12:00,
2013-03-17 11:43:00,26.0,26.0,-100.00,North,11,0.0,0.0,100,0.00,,,0.01,38.000000,,2013-03-17 15:43:00,
2013-03-17 11:53:00,26.0,26.0,-100.00,North,11,0.0,0.0,100,0.00,,,0.01,38.000000,,2013-03-17 15:53:00,
2013-03-17 12:03:00,26.0,26.0,-100.00,North,11,0.0,0.0,100,0.00,,,0.01,38.000000,,2013-03-17 16:03:00,
2013-03-17 12:13:00,26.0,26.0,-100.00,North,11,0.0,0.0,100,0.00,,,0.01,38.000000,,2013-03-17 16:13:00,
2013-03-17 12:43:00,26.0,26.0,-100.00,NNE,28,0.0,0.0,100,0.00,,,0.01,57.000000,,2013-03-17 16:43:00,
2013-03-17 12:53:00,26.0,26.0,-100.00,NNE,28,0.0,0.0,100,0.00,,,0.01,57.000000,,2013-03-17 16:53:00,
2013-03-17 13:03:00,26.0,26.0,-100.00,NNE,28,0.0,0.0,100,0.00,,,0.01,57.000000,,2013-03-17 17:03:00,
2013-03-17 13:12:00,26.0,26.0,-100.00,NNE,28,0.0,0.0,100,0.00,,,0.01,57.000000,,2013-03-17 17:12:00,
2013-03-17 13:42:00,28.0,27.0,-100.00,ENE,62,0.0,0.0,96,0.00,,,0.01,118.000000,,2013-03-17 17:42:00,
2013-03-17 13:53:00,28.0,27.0,-100.00,ENE,62,0.0,0.0,96,0.00,,,0.01,118.000000,,2013-03-17 17:53:00,
2013-03-17 14:02:00,28.0,27.0,-100.00,ENE,62,0.0,0.0,96,0.00,,,0.01,118.000000,,2013-03-17 18:02:00,
2013-03-17 14:12:00,28.0,27.0,-100.00,ENE,62,0.0,0.0,96,0.00,,,0.01,118.000000,,2013-03-17 18:12:00,
2013-03-17 14:42:00,28.0,26.0,-100.00,North,5,0.0,0.0,93,0.00,,,0.01,114.000000,,2013-03-17 18:42:00,
2013-03-17 14:52:00,28.0,26.0,-100.00,North,5,0.0,0.0,93,0.00,,,0.01,114.000000,,2013-03-17 18:52:00,
2013-03-17 15:02:00,28.0,26.0,-100.00,North,5,0.0,0.0,93,0.00,,,0.01,114.000000,,2013-03-17 19:02:00,
2013-03-17 15:12:00,28.0,26.0,-100.00,North,5,0.0,0.0,93,0.00,,,0.01,114.000000,,2013-03-17 19:12:00,
2013-03-17 15:42:00,27.0,25.0,-100.00,NNW,346,0.0,0.0,91,0.00,,,0.01,100.000000,,2013-03-17 19:42:00,
2013-03-17 15:53:00,27.0,25.0,-100.00,NNW,346,0.0,0.0,91,0.00,,,0.01,100.000000,,2013-03-17 19:53:00,
2013-03-17 16:02:00,27.0,25.0,-100.00,NNW,346,0.0,0.0,91,0.00,,,0.01,100.000000,,2013-03-17 20:02:00,
2013-03-17 16:12:00,27.0,25.0,-100.00,NNW,346,0.0,0.0,91,0.00,,,0.01,100.000000,,2013-03-17 20:12:00,
2013-03-17 16:43:00,28.0,26.0,-100.00,North,357,0.0,0.0,91,0.00,,,0.00,88.000000,,2013-03-17 20:43:00,
2013-03-17 16:52:00,28.0,26.0,-100.00,North,357,0.0,0.0,91,0.00,,,0.00,88.000000,,2013-03-17 20:52:00,
2013-03-17 17:03:00,28.0,26.0,-100.00,North,357,0.0,0.0,91,0.00,,,0.00,88.000000,,2013-03-17 21:03:00,
2013-03-17 17:12:00,28.0,26.0,-100.00,North,357,0.0,0.0,91,0.00,,,0.00,88.000000,,2013-03-17 21:12:00,
2013-03-17 17:43:00,29.0,26.0,-100.00,NE,39,0.0,0.0,87,0.00,,,0.00,93.000000,,2013-03-17 21:43:00,
2013-03-17 17:53:00,29.0,26.0,-100.00,NE,39,0.0,0.0,87,0.00,,,0.00,93.000000,,2013-03-17 21:53:00,
2013-03-17 18:03:00,29.0,26.0,-100.00,NE,39,0.0,0.0,87,0.00,,,0.00,93.000000,,2013-03-17 22:03:00,
2013-03-17 18:13:00,29.0,26.0,-100.00,NE,39,0.0,0.0,87,0.00,,,0.00,93.000000,,2013-03-17 22:13:00,
2013-03-17 18:42:00,28.0,24.0,-100.00,East,92,0.0,0.0,83,0.00,,,0.00,54.000000,,2013-03-17 22:42:00,
2013-03-17 18:53:00,28.0,24.0,-100.00,East,92,0.0,0.0,83,0.00,,,0.00,54.000000,,2013-03-17 22:53:00,
2013-03-17 19:03:00,28.0,24.0,-100.00,East,92,0.0,0.0,83,0.00,,,0.00,54.000000,,2013-03-17 23:03:00,
2013-03-17 19:12:00,28.0,24.0,-100.00,East,92,0.0,0.0,83,0.00,,,0.00,54.000000,,2013-03-17 23:12:00,
2013-03-17 19:43:00,28.0,23.0,-100.00,ESE,118,0.0,0.0,82,0.00,,,0.00,16.000000,,2013-03-17 23:43:00,
2013-03-17 19:53:00,28.0,23.0,-100.00,ESE,118,0.0,0.0,82,0.00,,,0.00,16.000000,,2013-03-17 23:53:00,
2013-03-17 20:03:00,28.0,23.0,-100.00,ESE,118,0.0,0.0,82,0.00,,,0.00,16.000000,,2013-03-18 00:03:00,
2013-03-17 20:42:00,28.0,24.0,-100.00,SE,137,0.0,0.0,86,0.00,,,0.00,0.000000,,2013-03-18 00:42:00,
2013-03-17 20:53:00,28.0,24.0,-100.00,SE,137,0.0,0.0,86,0.00,,,0.00,0.000000,,2013-03-18 00:53:00,
2013-03-17 21:02:00,28.0,24.0,-100.00,SE,137,0.0,0.0,86,0.00,,,0.00,0.000000,,2013-03-18 01:02:00,
2013-03-17 21:12:00,28.0,24.0,-100.00,SE,137,0.0,0.0,86,0.00,,,0.00,0.000000,,2013-03-18 01:12:00,
2013-03-17 21:42:00,27.0,24.0,-100.00,SE,135,0.0,0.0,89,0.00,,,0.00,0.000000,,2013-03-18 01:42:00,
2013-03-17 21:52:00,27.0,24.0,-100.00,SE,135,0.0,0.0,89,0.00,,,0.00,0.000000,,2013-03-18 01:52:00,
2013-03-17 22:02:00,27.0,24.0,-100.00,SE,135,0.0,0.0,89,0.00,,,0.00,0.000000,,2013-03-18 02:02:00,
2013-03-17 22:12:00,27.0,24.0,-100.00,SE,135,0.0,0.0,89,0.00,,,0.00,0.000000,,2013-03-18 02:12:00,
2013-03-17 22:42:00,27.0,24.0,-100.00,SE,130,0.0,0.0,88,0.00,,,0.00,0.000000,,2013-03-18 02:42:00,
2013-03-17 22:52:00,27.0,24.0,-100.00,SE,130,0.0,0.0,88,0.00,,,0.00,0.000000,,2013-03-18 02:52:00,
2013-03-17 23:03:00,27.0,24.0,-100.00,SE,130,0.0,0.0,88,0.00,,,0.00,0.000000,,2013-03-18 03:03:00,
2013-03-17 23:12:00,27.0,24.0,-100.00,SE,130,0.0,0.0,88,0.00,,,0.00,0.000000,,2013-03-18 03:12:00,
2013-03-17 23:42:00,26.0,22.0,-100.00,SE,135,0.0,0.0,83,0.00,,,0.00,0.000000,,2013-03-18 03:42:00,
2013-03-17 23:53:00,26.0,22.0,-100.00,SE,135,0.0,0.0,83,0.00,,,0.00,0.000000,,2013-03-18 03:53:00,